DELTA 1 DEB, 40764

Orbit data source: Space-Track

DELTA 1 DEB, 40764 is space debris in SSO originally from a launch on Thu, 29 Jul 1976 UTC launched from the Air Force Western Test Range (AFWTR). Debris objects in space refer to the collection of defunct objects orbiting the Earth. Examples of debris include non-operational satellites, rocket bodies, and fragments generated from explosions, collisions, or faulty payload assembly.

Loading next visibility...
Identifier
40764, 1976-077GH
Orbit
SSO
Country
Flag of USUS
Related business
Manufacturer
Unknown
Mission
Spacecraft
Bus & Motor
Unknown
Mass
Unknown
Launch date (UTC)
1976-07-29 (50 years ago)
Launch vehicle
Unknown
Launch site
Air Force Western Test Range (AFWTR)
Object type
Payload
Rocket body
Debris
Shape & HBR
Unknown shape, 0.1 m
Radar Cross Section
Small (<0.1 m²)

Expand to show TLE details & history
Last TLE update: 2 days ago

TLE from 2 days ago
0 DELTA 1 DEB
1 40764U 76077GH  26117.19165558  .00000014  00000-0  44173-3 0  9992
2 40764 102.2007  99.4672 0001428 123.2815 236.8385 12.40720702895506
Epoch: 2026-04-27T04:35Z
TLE epoch observation values (Epoch: 2026-04-27T04:35:59.042Z)
Latitude
-0.00001°
Longitude
175.28633°
Altitude
1,506.707 km
Speed
7.111 km/s
True Right ascension
06h 37m 52s
True Declination
0° 00' 00"
Sunlit
Object was in daylight at epoch
Visualization orbit readout
Latitude
Unknown
Longitude
Unknown
Altitude
Unknown
Speed
Unknown
Apparent Right ascension
Unknown
Apparent Declination
Unknown
Sunlit
N/A
Visualization observer readout
Local Sidereal Time
14:42:38
Azimuth
Unknown
Elevation
Unknown
Doppler factor
Unknown
Orbital elements
Apogee altitude
1,502.26 km
Perigee altitude
1,500.01 km
Semi-major axis
7,879.272 km
Eccentricity
0.00014
Inclination
102.2007°
RAAN
99.4672°
Arg. of periapsis
123.2815°
True anomaly
236.8248°
Mean anomaly
236.8385°
Eccentric anomaly
236.83165°
Mean motion
3.10323 °/min
Orbital period
116.01 mins
BSTAR
0.00044173
Loading maneuver chart data...
Computing Atmospheric mass density...
Loading historical data...
Loading historical data...
Loading historical data...
Loading historical data...
Loading historical data...
Loading historical data...
Loading historical data...

Documentation

Showing up to 5 results
|